LGL65FN LIRF-ELLX

Flight info

Callsign LGL65FN
Flight time N/A
Altitude 36000
Route NEMBO DCT ELKAP DCT GOVGO DCT DEVOX DCT PIMOT DCT AOSTA DCT ORSUD DCT MOLUS DCT GILIR/N0433F340 DCT PENDU DCT IXILU DCT EPL G21 GIVOR
Aircraft B738/M-SDE2E3FGHIRWXY/LB1

Departure

Time N/A
Airport Rome–Fiumicino Leonardo da Vinci International Airport (LIRF)

Arrival

Time 2026-05-07 20:12
Airport Luxembourg-Findel International Airport (ELLX)
Time Latitude Longitude Altitude Speed Heading
2026-05-07 18:45 42.20392 10.91274 27566 ft 415 kts 306°
2026-05-07 18:45 42.22288 10.88323 27909 ft 417 kts 306°
2026-05-07 18:46 42.24191 10.85359 28240 ft 419 kts 306°
2026-05-07 18:46 42.26102 10.82380 28566 ft 421 kts 306°
2026-05-07 18:46 42.28123 10.79493 28857 ft 429 kts 315°
2026-05-07 18:46 42.30695 10.77335 29144 ft 444 kts 330°
2026-05-07 18:47 42.33680 10.76081 29464 ft 454 kts 340°
2026-05-07 18:47 42.36774 10.75143 29792 ft 456 kts 341°
2026-05-07 18:47 42.39884 10.74257 30120 ft 457 kts 341°
2026-05-07 18:47 42.42995 10.73369 30461 ft 456 kts 341°
2026-05-07 18:48 42.46092 10.72461 30806 ft 455 kts 341°
2026-05-07 18:48 42.49176 10.71532 31122 ft 454 kts 340°
2026-05-07 18:48 42.49786 10.71345 31190 ft 454 kts 340°
2026-05-07 18:49 42.53703 10.70137 31589 ft 454 kts 339°
2026-05-07 18:49 42.56774 10.69183 31948 ft 452 kts 339°
2026-05-07 18:49 42.60836 10.67919 32338 ft 452 kts 339°
2026-05-07 18:49 42.63904 10.66963 32599 ft 453 kts 339°
2026-05-07 18:50 42.65980 10.66318 32794 ft 453 kts 339°
2026-05-07 18:50 42.69047 10.65364 33096 ft 452 kts 339°
2026-05-07 18:50 42.72088 10.64312 33371 ft 447 kts 333°
2026-05-07 18:50 42.74916 10.62715 33701 ft 436 kts 325°
2026-05-07 18:51 42.77606 10.60875 34113 ft 431 kts 324°
2026-05-07 18:51 42.80273 10.59014 34347 ft 431 kts 324°
2026-05-07 18:51 42.82943 10.57150 34526 ft 433 kts 324°
2026-05-07 18:51 42.85631 10.55289 34727 ft 433 kts 324°
2026-05-07 18:52 42.88322 10.53445 34980 ft 432 kts 324°
2026-05-07 18:52 42.90975 10.51637 35212 ft 432 kts 324°
2026-05-07 18:52 42.93666 10.49806 35404 ft 433 kts 324°
2026-05-07 18:52 42.96361 10.47974 35627 ft 433 kts 324°
2026-05-07 18:53 42.99054 10.46142 35858 ft 432 kts 324°
2026-05-07 18:53 43.01744 10.44309 35985 ft 434 kts 324°
2026-05-07 18:53 43.03114 10.43373 35966 ft 435 kts 324°
2026-05-07 18:54 43.06893 10.40792 35983 ft 435 kts 324°
2026-05-07 18:54 43.12279 10.37112 35981 ft 431 kts 324°
2026-05-07 18:55 43.17602 10.33419 36005 ft 425 kts 321°
2026-05-07 18:55 43.22357 10.28859 35986 ft 414 kts 314°
2026-05-07 18:56 43.26938 10.24106 35990 ft 413 kts 314°
2026-05-07 18:56 43.31513 10.19348 36006 ft 413 kts 314°
2026-05-07 18:57 43.36128 10.14619 35999 ft 415 kts 314°
2026-05-07 18:57 43.40777 10.09877 35999 ft 418 kts 314°
2026-05-07 18:58 43.45453 10.05103 35998 ft 420 kts 314°
2026-05-07 18:58 43.48895 10.01581 35992 ft 421 kts 314°
2026-05-07 18:59 43.52106 9.98292 35991 ft 423 kts 314°
2026-05-07 18:59 43.56830 9.93442 35992 ft 424 kts 314°
2026-05-07 19:00 43.61563 9.88574 35991 ft 425 kts 315°
2026-05-07 19:00 43.66298 9.83695 35998 ft 424 kts 315°
2026-05-07 19:01 43.71021 9.78818 35993 ft 423 kts 315°
2026-05-07 19:01 43.75725 9.73951 35990 ft 421 kts 315°
2026-05-07 19:02 43.80405 9.69100 35991 ft 419 kts 314°
2026-05-07 19:02 43.85058 9.64264 35998 ft 418 kts 315°
2026-05-07 19:03 43.89692 9.59439 35992 ft 416 kts 314°
2026-05-07 19:03 43.93012 9.55977 35993 ft 415 kts 314°
2026-05-07 19:04 43.96387 9.52451 35993 ft 414 kts 314°
2026-05-07 19:04 44.00978 9.47648 35995 ft 413 kts 314°
2026-05-07 19:05 44.05562 9.42840 35999 ft 414 kts 314°
2026-05-07 19:05 44.10156 9.38014 35995 ft 414 kts 314°
2026-05-07 19:06 44.14721 9.33208 35993 ft 415 kts 314°
2026-05-07 19:06 44.21628 9.25920 35995 ft 416 kts 314°
2026-05-07 19:07 44.26241 9.21040 36009 ft 417 kts 315°
2026-05-07 19:07 44.30866 9.16139 36001 ft 418 kts 315°
2026-05-07 19:08 44.35501 9.11214 35994 ft 419 kts 315°
2026-05-07 19:08 44.37622 9.08959 36015 ft 419 kts 315°
2026-05-07 19:09 44.42280 9.03997 36008 ft 422 kts 315°
2026-05-07 19:09 44.46957 8.99005 36001 ft 423 kts 315°
2026-05-07 19:10 44.51641 8.93997 36004 ft 424 kts 315°
2026-05-07 19:10 44.56322 8.88982 35996 ft 423 kts 315°
2026-05-07 19:11 44.60992 8.83969 35991 ft 422 kts 315°
2026-05-07 19:11 44.65645 8.78967 36001 ft 420 kts 315°
2026-05-07 19:12 44.70264 8.73941 35991 ft 418 kts 313°
2026-05-07 19:12 44.74633 8.68588 35990 ft 415 kts 310°
2026-05-07 19:13 44.78908 8.63141 35982 ft 414 kts 310°
2026-05-07 19:13 44.80625 8.60959 35982 ft 414 kts 310°
2026-05-07 19:14 44.84918 8.55535 35994 ft 415 kts 311°
2026-05-07 19:14 44.89223 8.50117 35998 ft 416 kts 311°
2026-05-07 19:15 44.93545 8.44675 35984 ft 417 kts 311°
2026-05-07 19:15 44.97851 8.39241 35990 ft 419 kts 311°
2026-05-07 19:16 45.02204 8.33735 35987 ft 421 kts 311°
2026-05-07 19:16 45.06577 8.28196 35988 ft 423 kts 311°
2026-05-07 19:17 45.10965 8.22623 35981 ft 425 kts 312°
2026-05-07 19:17 45.15365 8.17024 35980 ft 426 kts 312°
2026-05-07 19:18 45.19769 8.11409 35976 ft 426 kts 312°
2026-05-07 19:18 45.21733 8.08900 35984 ft 426 kts 312°
2026-05-07 19:19 45.26139 8.03264 35976 ft 426 kts 312°
2026-05-07 19:19 45.30535 7.97630 35991 ft 426 kts 312°
2026-05-07 19:20 45.34931 7.91981 35975 ft 426 kts 312°
2026-05-07 19:20 45.39324 7.86326 35981 ft 426 kts 312°
2026-05-07 19:21 45.43710 7.80669 35980 ft 425 kts 312°
2026-05-07 19:21 45.48085 7.75015 35992 ft 425 kts 312°
2026-05-07 19:22 45.52465 7.69360 36008 ft 425 kts 313°
2026-05-07 19:22 45.56878 7.63738 36014 ft 426 kts 313°
2026-05-07 19:23 45.61304 7.58100 36017 ft 427 kts 313°
2026-05-07 19:23 45.63103 7.55804 36024 ft 427 kts 313°
2026-05-07 19:24 45.67530 7.50137 36024 ft 428 kts 313°
2026-05-07 19:24 45.71960 7.44457 35978 ft 427 kts 313°
2026-05-07 19:25 45.76384 7.38772 35981 ft 428 kts 313°
2026-05-07 19:25 45.80882 7.33160 35964 ft 432 kts 318°
2026-05-07 19:26 45.85809 7.28192 35990 ft 434 kts 320°
2026-05-07 19:26 45.90776 7.23267 35991 ft 433 kts 320°
2026-05-07 19:27 45.95689 7.18265 35992 ft 432 kts 319°
2026-05-07 19:27 46.00571 7.13265 36025 ft 430 kts 320°
2026-05-07 19:28 46.05507 7.08441 36014 ft 426 kts 317°
2026-05-07 19:28 46.07435 7.06234 36000 ft 426 kts 317°
2026-05-07 19:29 46.12216 7.01173 36011 ft 427 kts 320°
2026-05-07 19:29 46.17035 6.96285 35982 ft 426 kts 320°
2026-05-07 19:30 46.21866 6.91342 36023 ft 429 kts 320°
2026-05-07 19:30 46.26755 6.86287 36015 ft 433 kts 320°
2026-05-07 19:31 46.31654 6.81206 36019 ft 434 kts 320°
2026-05-07 19:31 46.36555 6.76111 36019 ft 433 kts 320°
2026-05-07 19:32 46.41436 6.71026 36021 ft 432 kts 320°
2026-05-07 19:32 46.46488 6.66264 36022 ft 436 kts 328°
2026-05-07 19:33 46.51969 6.62448 36023 ft 437 kts 330°
2026-05-07 19:33 46.54072 6.61018 36036 ft 437 kts 330°
2026-05-07 19:34 46.59563 6.57236 36015 ft 436 kts 329°
2026-05-07 19:34 46.65027 6.53399 36021 ft 436 kts 329°
2026-05-07 19:35 46.70478 6.49537 36035 ft 435 kts 329°
2026-05-07 19:35 46.75904 6.45683 35724 ft 430 kts 329°
2026-05-07 19:36 46.78578 6.43783 35486 ft 427 kts 329°
2026-05-07 19:36 46.81242 6.41886 35271 ft 425 kts 329°
2026-05-07 19:36 46.83864 6.40017 35040 ft 425 kts 329°
2026-05-07 19:36 46.86517 6.38122 34802 ft 424 kts 329°
2026-05-07 19:37 46.89166 6.36229 34579 ft 424 kts 329°
2026-05-07 19:37 46.91810 6.34338 34339 ft 423 kts 329°
2026-05-07 19:37 46.94455 6.32444 34133 ft 423 kts 329°
2026-05-07 19:37 46.97095 6.30552 34088 ft 422 kts 329°
2026-05-07 19:38 47.02384 6.26756 34068 ft 424 kts 329°
2026-05-07 19:38 47.04345 6.25346 34055 ft 424 kts 329°
2026-05-07 19:39 47.09826 6.22083 34054 ft 431 kts 342°
2026-05-07 19:39 47.14807 6.21175 34057 ft 435 kts 350°
2026-05-07 19:40 47.20847 6.20491 34052 ft 435 kts 350°
2026-05-07 19:40 47.26878 6.19781 34053 ft 435 kts 350°
2026-05-07 19:41 47.32904 6.19021 34051 ft 435 kts 350°
2026-05-07 19:41 47.38929 6.18239 34051 ft 435 kts 350°
2026-05-07 19:42 47.44961 6.17451 34055 ft 435 kts 350°
2026-05-07 19:42 47.51002 6.16661 34049 ft 436 kts 350°
2026-05-07 19:43 47.57044 6.15870 34044 ft 436 kts 350°
2026-05-07 19:43 47.59264 6.15580 34038 ft 431 kts 350°
2026-05-07 19:44 47.62211 6.15199 34029 ft 419 kts 350°
2026-05-07 19:44 47.65092 6.14824 34055 ft 413 kts 350°
2026-05-07 19:44 47.67911 6.14457 34031 ft 400 kts 350°
2026-05-07 19:44 47.70638 6.14101 34024 ft 387 kts 350°
2026-05-07 19:45 47.75964 6.13393 34065 ft 388 kts 350°
2026-05-07 19:45 47.81440 6.12654 34067 ft 402 kts 350°
2026-05-07 19:46 47.87102 6.11898 34072 ft 415 kts 351°
2026-05-07 19:46 47.92925 6.11139 34061 ft 423 kts 353°
2026-05-07 19:47 47.95883 6.11281 34057 ft 429 kts
2026-05-07 19:47 47.98795 6.12197 34017 ft 424 kts 11°
2026-05-07 19:47 48.01631 6.13326 33619 ft 421 kts 12°
2026-05-07 19:47 48.04452 6.14494 33133 ft 420 kts 12°
2026-05-07 19:48 48.07228 6.15647 33086 ft 409 kts 12°
2026-05-07 19:48 48.09980 6.16775 33061 ft 413 kts 12°
2026-05-07 19:48 48.11959 6.17573 33073 ft 417 kts 12°
2026-05-07 19:49 48.17667 6.19848 33064 ft 430 kts 11°
2026-05-07 19:49 48.23416 6.22132 33006 ft 423 kts 11°
2026-05-07 19:50 48.26216 6.23250 32669 ft 411 kts 11°
2026-05-07 19:50 48.28994 6.24358 32206 ft 404 kts 12°
2026-05-07 19:50 48.31666 6.25422 31528 ft 403 kts 12°
2026-05-07 19:50 48.34385 6.26503 30775 ft 404 kts 12°
2026-05-07 19:51 48.37106 6.27586 30047 ft 405 kts 12°
2026-05-07 19:51 48.39827 6.28673 29199 ft 405 kts 12°
2026-05-07 19:51 48.42547 6.29761 28374 ft 404 kts 12°
2026-05-07 19:51 48.45257 6.30847 27572 ft 403 kts 12°
2026-05-07 19:52 48.47960 6.31931 26801 ft 401 kts 12°
2026-05-07 19:52 48.50656 6.33013 26040 ft 400 kts 12°
2026-05-07 19:52 48.53339 6.34092 25296 ft 398 kts 12°
2026-05-07 19:52 48.56013 6.35169 24568 ft 397 kts 12°
2026-05-07 19:53 48.58671 6.36241 23861 ft 394 kts 12°
2026-05-07 19:53 48.61315 6.37307 23073 ft 392 kts 12°
2026-05-07 19:53 48.62442 6.37761 22733 ft 393 kts 12°
2026-05-07 19:53 48.63387 6.38142 22450 ft 395 kts 12°
2026-05-07 19:54 48.66064 6.39202 21662 ft 400 kts 10°
2026-05-07 19:54 48.68817 6.39814 21011 ft 399 kts
2026-05-07 19:54 48.71548 6.40070 20797 ft 388 kts
2026-05-07 19:54 48.74219 6.40235 20524 ft 380 kts 360°
2026-05-07 19:55 48.76838 6.40399 20254 ft 373 kts
2026-05-07 19:55 48.79406 6.40588 20000 ft 365 kts
2026-05-07 19:55 48.81903 6.40799 19730 ft 354 kts
2026-05-07 19:55 48.84323 6.41024 19492 ft 343 kts
2026-05-07 19:56 48.86690 6.41253 19250 ft 338 kts
2026-05-07 19:56 48.89021 6.41484 19010 ft 334 kts
2026-05-07 19:56 48.91322 6.41716 18774 ft 329 kts
2026-05-07 19:56 48.93595 6.41946 18535 ft 325 kts
2026-05-07 19:57 48.95841 6.42174 18283 ft 322 kts
2026-05-07 19:57 48.98070 6.42400 18009 ft 320 kts
2026-05-07 19:57 49.00283 6.42625 17742 ft 318 kts
2026-05-07 19:57 49.02473 6.42849 17263 ft 315 kts
2026-05-07 19:58 49.04673 6.43073 16577 ft 319 kts
2026-05-07 19:58 49.06896 6.43300 15897 ft 322 kts
2026-05-07 19:58 49.07755 6.43387 15637 ft 323 kts
2026-05-07 19:58 49.08534 6.43467 15405 ft 323 kts
2026-05-07 19:59 49.10787 6.43699 14747 ft 326 kts
2026-05-07 19:59 49.13053 6.43930 14099 ft 327 kts
2026-05-07 19:59 49.15329 6.44156 13403 ft 328 kts
2026-05-07 19:59 49.17609 6.44389 12695 ft 329 kts
2026-05-07 20:00 49.19855 6.44612 12184 ft 324 kts
2026-05-07 20:00 49.22035 6.44685 12052 ft 305 kts 350°
2026-05-07 20:00 49.24004 6.43740 11759 ft 293 kts 334°
2026-05-07 20:00 49.25825 6.42396 11277 ft 290 kts 332°
2026-05-07 20:01 49.27644 6.41038 10759 ft 291 kts 334°
2026-05-07 20:01 49.29479 6.39770 10321 ft 289 kts 334°
2026-05-07 20:01 49.31307 6.38530 10133 ft 284 kts 334°
2026-05-07 20:01 49.33105 6.37306 9854 ft 283 kts 334°
2026-05-07 20:02 49.34899 6.36078 9556 ft 282 kts 334°
2026-05-07 20:02 49.36681 6.34853 9267 ft 280 kts 334°
2026-05-07 20:02 49.38457 6.33642 8984 ft 278 kts 336°
2026-05-07 20:02 49.40315 6.32832 8702 ft 278 kts 347°
2026-05-07 20:03 49.42209 6.32287 8435 ft 276 kts 348°
2026-05-07 20:03 49.44091 6.31739 8157 ft 275 kts 348°
2026-05-07 20:03 49.45959 6.31165 7877 ft 273 kts 347°
2026-05-07 20:03 49.47818 6.30576 7596 ft 272 kts 347°
2026-05-07 20:04 49.49540 6.29461 7287 ft 270 kts 320°
2026-05-07 20:04 49.50653 6.27202 7046 ft 266 kts 291°
2026-05-07 20:04 49.50975 6.24434 6778 ft 264 kts 267°
2026-05-07 20:04 49.50594 6.21696 6510 ft 262 kts 251°
2026-05-07 20:05 49.49981 6.19063 6225 ft 261 kts 250°
2026-05-07 20:05 49.49366 6.16441 5949 ft 260 kts 250°
2026-05-07 20:05 49.48759 6.13818 5675 ft 259 kts 250°
2026-05-07 20:05 49.48165 6.11228 5531 ft 253 kts 250°
2026-05-07 20:06 49.47590 6.08710 5411 ft 246 kts 250°
2026-05-07 20:06 49.47058 6.06256 5315 ft 237 kts 258°
2026-05-07 20:06 49.47147 6.03833 5195 ft 223 kts 292°
2026-05-07 20:06 49.47976 6.01916 5003 ft 209 kts 315°
2026-05-07 20:07 49.49119 6.00637 4802 ft 200 kts 332°
2026-05-07 20:07 49.50332 5.99587 4598 ft 201 kts 331°
2026-05-07 20:07 49.51542 5.98535 4387 ft 197 kts 331°
2026-05-07 20:07 49.52789 5.97952 4279 ft 184 kts
2026-05-07 20:08 49.53884 5.98837 4198 ft 186 kts 47°
2026-05-07 20:08 49.54716 6.00402 3958 ft 185 kts 53°
2026-05-07 20:08 49.55462 6.01954 3706 ft 177 kts 56°
2026-05-07 20:08 49.56117 6.03534 3500 ft 174 kts 59°
2026-05-07 20:09 49.56716 6.05117 3246 ft 166 kts 60°
2026-05-07 20:09 49.57259 6.06584 3042 ft 151 kts 60°
2026-05-07 20:09 49.57758 6.07937 2875 ft 143 kts 60°
2026-05-07 20:10 49.58729 6.10563 2464 ft 140 kts 59°
2026-05-07 20:10 49.59198 6.11884 2268 ft 141 kts 62°
2026-05-07 20:10 49.59692 6.13190 2075 ft 141 kts 59°
2026-05-07 20:10 49.60181 6.14499 1872 ft 141 kts 60°
2026-05-07 20:11 49.60667 6.15813 1684 ft 141 kts 60°
2026-05-07 20:11 49.61157 6.17128 1450 ft 141 kts 59°
2026-05-07 20:11 49.61636 6.18410 1265 ft 139 kts 61°
2026-05-07 20:11 49.62098 6.19686 1193 ft 127 kts 60°
2026-05-07 20:12 49.62472 6.20691 1237 ft 84 kts 60°
2026-05-07 20:12 49.62687 6.21267 1231 ft 43 kts 58°
2026-05-07 20:12 49.62836 6.21663 1218 ft 42 kts 61°
2026-05-07 20:12 49.62980 6.22050 1213 ft 31 kts 60°
2026-05-07 20:13 49.63067 6.22117 1215 ft 11 kts 334°
2026-05-07 20:13 49.63123 6.22070 1220 ft 7 kts 331°
2026-05-07 20:13 49.63156 6.22042 1224 ft 4 kts 330°
2026-05-07 20:13 49.63172 6.22007 1226 ft 4 kts 288°
2026-05-07 20:14 49.63172 6.21962 1227 ft 4 kts 265°
2026-05-07 20:14 49.63180 6.21917 1227 ft 4 kts 310°
2026-05-07 20:14 49.63205 6.21891 1227 ft 4 kts 328°
2026-05-07 20:14 49.63234 6.21864 1227 ft 5 kts 330°
2026-05-07 20:15 49.63265 6.21837 1229 ft 5 kts 330°
2026-05-07 20:15 49.63295 6.21810 1229 ft 5 kts 322°
2026-05-07 20:15 49.63307 6.21765 1229 ft 2 kts 264°
2026-05-07 20:15 49.63304 6.21750 1229 ft 1 kts 256°
2026-05-07 20:16 49.63305 6.21731 1229 ft 2 kts 292°
2026-05-07 20:16 49.63317 6.21716 1229 ft 2 kts 323°
2026-05-07 20:16 49.63330 6.21702 1229 ft 2 kts 328°
2026-05-07 20:16 49.63343 6.21690 1229 ft 1 kts 329°
2026-05-07 20:17 49.63348 6.21686 1229 ft 0 kts 330°